Content
SEND FEEDBACK

Daily
Averages
Monthly
Summary
United States of America

GREENVILLE, OHIO


Home > North America > United States > Ohio
Elevation: 1055 feet     Latitude: 40 05N     Longitude: 084 39W

WEATHER
 
SELECT A DAY
Number of Records: 106,427;   Date Range: 3/8/10 - 8/22/14
 
SHARE

PRINT THIS DATA

[ ← Previous Day ]
WEATHER ALMANAC - JANUARY 31, 2013
[ Next Day → ]
[ °C ]   °F
Weather ElementAverageHighLow
Temperature23.2 °F30.2 °F (12:35 am)14 °F (10:55 pm)
Dewpoint17.6 °F26.6 °F (12:35 am)8.6 °F (9:35 pm)
Humidity79.3 %100 % (12:35 pm)68 % (9:35 am)
Barometer29.80 in29.99 in (11:55 pm)29.52 in (12:35 am)
Wind Speed21.6 mph33.4 mph (3:15 am)
Wind Gust43.7 mph (1:35 am)
Weather ElementAverage
Visibility8 mi
Wind DirectionWNW (278 °)

Weather ElementTotal
Precipitation---
Heating Degree Days42.9 (Base 65)
Averaged from 70 records on January 31, 2013
WEATHER CONDITIONS BREAKOUT
WIND DIRECTION BREAKOUT
WEATHER BY HOUR - JANUARY 31, 2013
[ °C ]   °F
Local TimeTemperatureDewpointHumidityBarometerVisibilityWind DirectionWind SpeedGust SpeedPrecipitationEventsConditions
12:35 AM30.2 °F26.6 °F86 %29.52 in7.0 miWest (270°)28.8 mph39.1 mphSnowLight Snow
12:55 AM30.2 °F26.6 °F86 %29.54 in10.0 miWest (280°)27.6 mph38.0 mphSnowLight Snow
1:15 AM28.4 °F26.6 °F93 %29.55 in10.0 miWest (270°)32.2 mph40.3 mphOvercast
1:35 AM28.4 °F24.8 °F86 %29.57 in10.0 miWest (280°)32.2 mph43.7 mphOvercast
1:55 AM28.4 °F24.8 °F86 %29.59 in10.0 miWest (280°)27.6 mph36.8 mphSnowLight Snow
2:15 AM28.4 °F23.0 °F80 %29.61 in10.0 miWest (280°)29.9 mph40.3 mphSnowLight Snow
2:35 AM26.6 °F21.2 °F80 %29.62 in10.0 miWest (280°)26.5 mph42.6 mphSnowLight Snow
2:55 AM26.6 °F23.0 °F86 %29.63 in10.0 miWest (280°)24.2 mph33.4 mphSnowLight Snow
3:15 AM26.6 °F21.2 °F80 %29.64 in7.0 miWest (270°)33.4 mph43.7 mphSnowLight Snow
3:35 AM26.6 °F19.4 °F74 %29.65 in10.0 miWest (280°)27.6 mph40.3 mphOvercast
3:55 AM24.8 °F19.4 °F80 %29.66 in10.0 miWest (280°)32.2 mph41.4 mphOvercast
4:15 AM24.8 °F17.6 °F74 %29.66 in10.0 miWest (280°)27.6 mph40.3 mphOvercast
4:35 AM24.8 °F17.6 °F74 %29.67 in10.0 miWest (280°)24.2 mph34.5 mphSnowLight Snow
4:55 AM24.8 °F17.6 °F74 %29.67 in10.0 miWest (280°)24.2 mph39.1 mphOvercast
5:15 AM24.8 °F19.4 °F80 %29.69 in5.0 miWest (270°)19.6 mph32.2 mphSnowLight Snow
5:35 AM23.0 °F19.4 °F86 %29.69 in4.0 miWest (270°)29.9 mph35.7 mphSnowLight Snow
5:55 AM23.0 °F17.6 °F80 %29.70 in10.0 miWest (270°)25.3 mph38.0 mphOvercast
6:15 AM23.0 °F19.4 °F86 %29.70 in7.0 miWest (280°)20.7 mph28.8 mphSnowLight Snow
6:35 AM23.0 °F19.4 °F86 %29.71 in3.0 miWest (270°)26.5 mph35.7 mphSnowLight Snow
6:55 AM23.0 °F15.8 °F74 %29.73 in10.0 miWest (260°)27.6 mph36.8 mphOvercast
7:15 AM23.0 °F17.6 °F80 %29.74 in4.0 miWest (270°)28.8 mph34.5 mphSnowLight Snow
7:35 AM21.2 °F14.0 °F74 %29.76 in10.0 miWest (270°)26.5 mph38.0 mphOvercast
7:55 AM21.2 °F14.0 °F74 %29.76 in10.0 miWest (280°)23.0 mph34.5 mphOvercast
8:15 AM21.2 °F14.0 °F74 %29.76 in10.0 miWest (280°)19.6 mph31.1 mphOvercast
8:55 AM21.2 °F14.0 °F74 %29.79 in10.0 miWest (270°)26.5 mph36.8 mphSnowLight Snow
9:15 AM21.2 °F14.0 °F74 %29.80 in10.0 miWest (280°)25.3 mph32.2 mphOvercast
9:35 AM23.0 °F14.0 °F68 %29.81 in10.0 miWest (270°)21.9 mph33.4 mphOvercast
9:55 AM23.0 °F15.8 °F74 %29.82 in10.0 miWest (270°)20.7 mph26.5 mphOvercast
10:15 AM23.0 °F17.6 °F80 %29.82 in5.0 miWest (270°)21.9 mph27.6 mphHaze
10:35 AM23.0 °F15.8 °F74 %29.83 in10.0 miWest (270°)19.6 mph32.2 mphOvercast
10:55 AM23.0 °F19.4 °F86 %29.84 in2.5 miWest (280°)20.7 mph32.2 mphSnowLight Snow
11:15 AM23.0 °F19.4 °F86 %29.84 in4.0 miWSW (250°)19.6 mph25.3 mphSnowLight Snow
11:35 AM23.0 °F21.2 °F93 %29.84 in3.0 miWSW (250°)18.4 mph25.3 mphSnowLight Snow
11:55 AM24.8 °F21.2 °F86 %29.84 in3.0 miWSW (250°)17.3 mph23.0 mphSnowLight Snow
12:15 PM23.0 °F21.2 °F93 %29.84 in1.2 miWest (260°)19.6 mph24.2 mphSnowLight Snow
12:35 PM23.0 °F23.0 °F100 %29.84 in1.0 miWest (260°)11.5 mphSnowLight Snow
12:55 PM23.0 °F23.0 °F100 %29.83 in1.0 miWest (260°)10.4 mphSnowLight Snow
1:15 PM23.0 °F23.0 °F100 %29.83 in0.5 miWest (270°)12.7 mphSnowSnow
1:35 PM26.6 °F19.4 °F74 %29.83 in10.0 miWest (270°)18.4 mph25.3 mphOvercast
1:55 PM26.6 °F19.4 °F74 %29.83 in3.0 miWest (260°)19.6 mph31.1 mphHaze
2:15 PM26.6 °F19.4 °F74 %29.83 in7.0 miWest (260°)19.6 mph28.8 mphOvercast
2:35 PM26.6 °F21.2 °F80 %29.84 in3.0 miWest (270°)17.3 mph28.8 mphSnowLight Snow
2:55 PM26.6 °F21.2 °F80 %29.84 in4.0 miWest (270°)16.1 mph27.6 mphSnowLight Snow
3:15 PM26.6 °F21.2 °F80 %29.83 in10.0 miWest (280°)16.1 mph21.9 mphSnowLight Snow
3:35 PM26.6 °F19.4 °F74 %29.84 in10.0 miWest (270°)19.6 mph25.3 mphOvercast
3:55 PM26.6 °F19.4 °F74 %29.85 in10.0 miWest (270°)24.2 mph29.9 mphMostly Cloudy
4:15 PM26.6 °F17.6 °F69 %29.85 in10.0 miWNW (290°)20.7 mph27.6 mphOvercast
4:35 PM26.6 °F17.6 °F69 %29.85 in10.0 miWest (270°)19.6 mph29.9 mphOvercast
4:55 PM24.8 °F17.6 °F74 %29.84 in10.0 miWest (280°)19.6 mph25.3 mphScattered Clouds
5:15 PM24.8 °F17.6 °F74 %29.85 in10.0 miWest (270°)16.1 mph28.8 mphMostly Cloudy
5:35 PM24.8 °F17.6 °F74 %29.85 in10.0 miWest (280°)18.4 mph26.5 mphOvercast
5:55 PM23.0 °F17.6 °F80 %29.85 in10.0 miWest (270°)18.4 mph26.5 mphOvercast
6:15 PM23.0 °F17.6 °F80 %29.85 in10.0 miWest (280°)13.8 mph18.4 mphOvercast
6:35 PM23.0 °F17.6 °F80 %29.87 in10.0 miWest (280°)15.0 mphOvercast
6:55 PM23.0 °F15.8 °F74 %29.87 in10.0 miNW (310°)16.1 mph24.2 mphOvercast
7:15 PM23.0 °F15.8 °F74 %29.88 in10.0 miWest (280°)19.6 mph24.2 mphOvercast
7:35 PM23.0 °F15.8 °F74 %29.89 in10.0 miWNW (290°)18.4 mph25.3 mphOvercast
7:55 PM23.0 °F15.8 °F74 %29.90 in10.0 miWNW (300°)20.7 mph26.5 mphOvercast
8:15 PM21.2 °F15.8 °F80 %29.91 in10.0 miWNW (300°)19.6 mph28.8 mphSnowLight Snow
8:35 PM19.4 °F15.8 °F86 %29.91 in7.0 miNW (310°)19.6 mph24.2 mphSnowLight Snow
8:55 PM17.6 °F12.2 °F79 %29.92 in10.0 miWNW (300°)18.4 mph27.6 mphOvercast
9:15 PM17.6 °F12.2 °F79 %29.92 in10.0 miWNW (300°)20.7 mph28.8 mphSnowLight Snow
9:35 PM17.6 °F8.6 °F68 %29.93 in10.0 miWNW (290°)20.7 mph31.1 mphOvercast
9:55 PM17.6 °F8.6 °F68 %29.94 in10.0 miWNW (300°)19.6 mph26.5 mphOvercast
10:15 PM15.8 °F8.6 °F73 %29.95 in10.0 miWNW (300°)20.7 mph26.5 mphOvercast
10:35 PM15.8 °F8.6 °F73 %29.96 in10.0 miWNW (290°)18.4 mph26.5 mphOvercast
10:55 PM14.0 °F8.6 °F79 %29.97 in10.0 miWNW (300°)18.4 mph28.8 mphOvercast
11:15 PM14.0 °F8.6 °F79 %29.97 in10.0 miNW (310°)20.7 mph26.5 mphOvercast
11:35 PM14.0 °F8.6 °F79 %29.98 in4.0 miWNW (300°)19.6 mph27.6 mphSnowLight Snow
11:55 PM14.0 °F8.6 °F79 %29.99 in3.0 miWNW (290°)17.3 mph28.8 mphSnowLight Snow
Hourly data recorded from KVES, located miles away from Greenville, Ohio







STORIES FROM OUR PARTNERS